Flag for Brazil Weather past 2 weeks in Fortaleza, Ceará, Brazil

Now
84 °F

Scattered clouds.


Feels Like: 85 °F
Forecast: 75 / 85 °F
Wind: 20 mph from East

Location: Fortaleza Aeropor-To

Current Time: Aug 4, 2015 at 11:24:25 AM

Latest Report: Aug 4, 2015 at 11:00 AM


Visibility: N/A

Pressure: 30.04 "Hg

Humidity: 48%

Dew point: 63 °F

Location of FortalezaLocation

Historic Weather in Fortaleza — Graph

°F

Fortaleza temperature yesterday

Maximum temperature yesterday: 84 °F (at 11:00 AM)
Minimum temperature yesterday: 75 °F (at 5:00 AM)
Average temperature yesterday: 80 °F

Past Weeks' High & Low Weather Summary

 TemperatureHumidityPressure
High86 °F (Jul 20, 1:00 PM)100% (Jul 27, 6:00 AM)30.04 "Hg (Jul 27, 6:00 AM)
Low70 °F (Jul 27, 6:00 AM)38% (Aug 1, 1:00 PM)29.86 "Hg (Aug 1, 3:00 PM)
Average79 °F69%29.96 "Hg
* Reported Jul 20 10:00 AM — Aug 4 10:00 AM, Fortaleza, Weather by CustomWeather, © 2015

Note: Actual official high and low records may vary slightly from our data, if they occured in-between our weather recording intervals... More about our weather records

Advertising

Fortaleza weather history for previous 24 hours

 ConditionsComfort  
Time TempWeatherWind HumidityBarometerVisibility
10:00 AM
Tue, Aug 4
82 °FScattered clouds.18 mph51%30.04 "HgN/A
9:00 AM81 °FPassing clouds.17 mph54%30.04 "HgN/A
8:00 AM77 °FScattered clouds.17 mph61%30.04 "HgN/A
7:00 AM75 °FPartly sunny.15 mph69%30.01 "HgN/A
6:00 AM75 °FPartly sunny.13 mph74%29.98 "HgN/A
5:00 AM77 °FPassing clouds.13 mph74%29.98 "HgN/A
4:00 AM77 °FPassing clouds.13 mph74%29.95 "HgN/A
3:00 AM77 °FPassing clouds.17 mph74%29.95 "HgN/A
2:00 AM77 °FPassing clouds.20 mph74%29.95 "HgN/A
1:00 AM79 °FPassing clouds.24 mph70%29.98 "HgN/A
12:00 AM79 °FPassing clouds.21 mph74%29.98 "HgN/A
11:00 PM
Mon, Aug 3
79 °FPassing clouds.20 mph74%29.98 "HgN/A
10:00 PM79 °FPassing clouds.18 mph74%29.98 "HgN/A
9:00 PM79 °FPassing clouds.22 mph74%29.98 "HgN/A
8:00 PM79 °FPassing clouds.17 mph74%29.95 "HgN/A
7:00 PM79 °FPassing clouds.18 mph74%29.92 "HgN/A
6:00 PM79 °FPassing clouds.16 mph74%29.92 "HgN/A
5:00 PM81 °FPassing clouds.22 mph70%29.92 "HgN/A
4:00 PM82 °FPassing clouds.20 mph62%29.92 "HgN/A
3:00 PM82 °FPassing clouds.22 mph58%29.89 "HgN/A
2:00 PM84 °FPassing clouds.24 mph51%29.92 "HgN/A
1:00 PM84 °FPassing clouds.24 mph55%29.95 "HgN/A
12:00 PM84 °FPassing clouds.26 mph51%29.98 "HgN/A
11:00 AM84 °FPassing clouds.23 mph48%29.98 "HgN/A
Weather by CustomWeather, © 2015

See weather overviewHow to use our weather pages